| time (UTC) | temp C | wind direction | speed KPH | gust KPH | rain 1hr cm | rain 24hr cm | rain mn cm | humidity % | barometer mb |
| 20260503203004 | 15 | 290 | 0.0 | 0.0 | 0.00 | 0.05 | 0.05 | 65 | 1010.4 |
| 20260503193004 | 15 | 290 | 0.0 | 4.8 | 0.00 | 0.05 | 0.05 | 63 | 1009.6 |
| 20260503190004 | 16 | 290 | 0.0 | 4.8 | 0.00 | 0.05 | 0.05 | 65 | 1009.3 |
| 20260503183004 | 16 | 290 | 0.0 | 4.8 | 0.00 | 0.05 | 0.05 | 64 | 1009.1 |
| 20260503180005 | 17 | 290 | 1.6 | 4.8 | 0.00 | 0.05 | 0.05 | 63 | 1009.1 |
| 20260503173004 | 17 | 290 | 0.0 | 11.3 | 0.00 | 0.05 | 0.05 | 62 | 1009.1 |
| 20260503053004 | 12 | 273 | 0.0 | 0.0 | 0.00 | 0.94 | 0.00 | 90 | 1011.8 |
| 20260503050005 | 11 | 273 | 0.0 | 0.0 | 0.00 | 0.94 | 0.00 | 90 | 1011.5 |
| 20260503043004 | 11 | 273 | 0.0 | 0.0 | 0.00 | 0.94 | 0.00 | 90 | 1011.6 |
| 20260503040006 | 11 | 273 | 0.0 | 0.0 | 0.00 | 0.94 | 0.00 | 90 | 1011.5 |
| 20260503033005 | 12 | 273 | 0.0 | 0.0 | 0.00 | 0.94 | 0.00 | 90 | 1011.8 |
| 20260503030006 | 12 | 273 | 0.0 | 0.0 | 0.00 | 0.94 | 0.00 | 90 | 1012.0 |
| 20260503023005 | 12 | 273 | 0.0 | 0.0 | 0.00 | 0.94 | 0.00 | 90 | 1012.2 |
| 20260503020004 | 12 | 273 | 0.0 | 0.0 | 0.00 | 0.94 | 0.00 | 89 | 1012.0 |
| 20260503010004 | 13 | 273 | 0.0 | 0.0 | 0.00 | 0.94 | 0.00 | 89 | 1012.5 |
| 20260503003004 | 13 | 273 | 0.0 | 0.0 | 0.00 | 0.94 | 0.00 | 88 | 1012.8 |
| 20260503000004 | 13 | 273 | 0.0 | 0.0 | 0.00 | 0.94 | 0.00 | 87 | 1013.1 |
| 20260502233005 | 14 | 273 | 0.0 | 0.0 | 0.00 | 0.94 | 0.00 | 86 | 1013.1 |
| 20260502230004 | 15 | 273 | 0.0 | 0.0 | 0.00 | 0.94 | 0.00 | 84 | 1013.1 |
| 20260502213004 | 14 | 273 | 0.0 | 0.0 | 0.00 | 0.94 | 0.94 | 88 | 1013.4 |
| 20260502210004 | 13 | 273 | 0.0 | 0.0 | 0.00 | 0.94 | 0.94 | 88 | 1013.2 |